FW7881 Weather Reports


Display with metric or nautical units.
time (UTC)temp
F
wind
direction
speed
MPH
gust
MPH
rain 1hr
in
rain 24hr
in
rain mn
in
humidity
%
barometer
mb
20221205113045 25 0 0.0 0.0 0.00 0.00 0.00 75 1007.6
20221205111554 26 0 0.0 1.0 0.00 0.00 0.00 74 1007.5
20221205110054 25 334 0.0 1.0 0.00 0.00 0.00 76 1007.6
20221205104547 25 0 0.0 0.0 0.00 0.00 0.00 77 1007.8
20221205103045 25 0 0.0 0.0 0.00 0.00 0.00 76 1007.7
20221205101548 25 0 0.0 1.0 0.00 0.00 0.00 76 1007.5
20221205100056 24 0 0.0 1.0 0.00 0.00 0.00 76 1007.5
20221205094552 25 343 0.0 1.0 0.00 0.00 0.00 76 1007.4
20221205093050 25 0 0.0 0.0 0.00 0.00 0.00 76 1007.5
20221205091603 25 0 0.0 0.0 0.00 0.00 0.00 75 1007.2
20221205090040 25 0 0.0 0.0 0.00 0.00 0.00 75 1006.8
20221205084548 25 0 0.0 0.0 0.00 0.00 0.00 75 1007.0
20221205083043 25 0 0.0 0.0 0.00 0.00 0.00 74 1006.7
20221205081541 25 255 0.0 2.0 0.00 0.00 0.00 75 1006.7
20221205080057 25 203 1.0 2.0 0.00 0.00 0.00 73 1006.5
20221205074549 25 212 0.0 2.0 0.00 0.00 0.00 75 1006.6
20221205073101 24 205 0.0 2.0 0.00 0.00 0.00 76 1006.7
20221205071552 24 167 0.0 1.0 0.00 0.00 0.00 75 1006.5
20221205070041 24 0 0.0 0.0 0.00 0.00 0.00 76 1006.7
20221205064548 25 0 0.0 0.0 0.00 0.00 0.00 76 1006.5
20221205063054 24 0 0.0 0.0 0.00 0.00 0.00 75 1006.6
20221205061552 24 0 0.0 1.0 0.00 0.00 0.00 76 1006.7
20221205060047 25 179 1.0 2.0 0.00 0.00 0.00 73 1006.7
20221205054600 25 162 0.0 0.0 0.00 0.00 0.00 74 1006.8
20221205053049 26 170 1.0 1.0 0.00 0.00 0.00 70 1006.7
20221205051602 26 0 0.0 4.0 0.00 0.00 0.00 74 1006.8
20221205050102 26 197 1.0 2.0 0.00 0.00 0.00 70 1006.5
20221205044557 27 0 0.0 3.0 0.00 0.00 0.00 68 1006.6
20221205043055 27 197 1.0 3.0 0.00 0.00 0.00 69 1006.5
20221205041616 27 183 2.0 3.0 0.00 0.00 0.00 68 1006.6
20221205040059 27 237 1.0 3.0 0.00 0.00 0.00 68 1006.8
20221205034602 28 189 1.0 2.0 0.00 0.00 0.00 67 1007.0
20221205033044 29 240 2.0 5.0 0.00 0.00 0.00 66 1007.2
20221205031559 29 220 3.0 6.0 0.00 0.00 0.00 66 1007.3
20221205030051 30 248 3.0 6.0 0.00 0.00 0.00 65 1007.2
20221205024545 29 244 3.0 4.0 0.00 0.00 0.00 65 1007.1
20221205023049 29 203 2.0 5.0 0.00 0.00 0.00 65 1007.1
20221205021544 29 213 3.0 5.0 0.00 0.00 0.00 65 1007.1
20221205020043 29 229 3.0 7.0 0.00 0.00 0.00 64 1007.6
20221205014552 29 205 3.0 9.0 0.00 0.00 0.00 63 1007.6
20221205013052 29 188 4.0 8.0 0.00 0.00 0.00 62 1007.9
20221205011549 29 248 4.0 7.0 0.00 0.00 0.00 62 1008.0
20221205010048 29 219 4.0 8.0 0.00 0.00 0.00 61 1008.0
20221205004545 30 210 4.0 8.0 0.00 0.00 0.00 60 1008.3
20221205003057 30 233 4.0 10.0 0.00 0.00 0.00 59 1008.4
20221205001540 30 169 5.0 8.0 0.00 0.00 0.00 60 1008.6
20221205000057 30 229 5.0 9.0 0.00 0.00 0.00 60 1008.8
20221204234550 30 210 4.0 9.0 0.00 0.00 0.00 61 1009.1
20221204233100 30 226 4.0 7.0 0.00 0.00 0.00 61 1009.2
20221204231552 30 240 4.0 7.0 0.00 0.00 0.00 61 1009.3
20221204230051 31 217 4.0 9.0 0.00 0.00 0.00 61 1009.8
20221204224552 31 214 4.0 8.0 0.00 0.00 0.00 60 1009.9
20221204223100 31 203 4.0 11.0 0.00 0.00 0.00 60 1010.2
20221204221600 32 222 5.0 10.0 0.00 0.00 0.00 59 1010.5
20221204220054 33 214 4.0 8.0 0.00 0.00 0.00 58 1010.9
20221204214555 33 206 4.0 9.0 0.00 0.00 0.00 56 1011.1
20221204213048 33 202 4.0 10.0 0.00 0.00 0.00 55 1011.3
20221204211553 33 189 5.0 9.0 0.00 0.00 0.00 54 1011.5
20221204210050 33 202 6.0 10.0 0.00 0.00 0.00 53 1011.5
20221204204605 33 205 2.0 8.0 0.00 0.00 0.00 54 1011.5
20221204203043 32 231 3.0 10.0 0.00 0.00 0.00 55 1011.9
20221204201607 32 239 6.0 10.0 0.00 0.00 0.00 54 1012.1
20221204200047 32 174 6.0 10.0 0.00 0.00 0.00 54 1012.7
20221204194601 31 239 5.0 11.0 0.00 0.00 0.00 54 1013.1
20221204193055 31 242 4.0 11.0 0.00 0.00 0.00 54 1013.5
20221204191553 30 255 5.0 11.0 0.00 0.00 0.00 55 1013.8
20221204190053 30 232 4.0 7.0 0.00 0.00 0.00 57 1014.2
20221204184554 30 176 3.0 8.0 0.00 0.00 0.00 57 1014.4
20221204183044 29 226 3.0 9.0 0.00 0.00 0.00 57 1015.1
20221204181545 28 240 5.0 9.0 0.00 0.00 0.00 57 1015.3
20221204180104 28 284 4.0 8.0 0.00 0.00 0.00 57 1015.5
20221204174604 27 225 4.0 8.0 0.00 0.00 0.00 58 1015.9
20221204173043 26 212 5.0 12.0 0.00 0.00 0.00 59 1016.1
20221204171551 25 240 4.0 8.0 0.00 0.00 0.00 61 1016.3
20221204170101 24 204 4.0 10.0 0.00 0.00 0.00 62 1016.6
20221204164556 23 220 6.0 10.0 0.00 0.00 0.00 63 1016.7
20221204163056 22 208 5.0 9.0 0.00 0.00 0.00 67 1017.1
20221204161545 21 251 5.0 9.0 0.00 0.00 0.00 70 1017.2
20221204160103 20 220 3.0 6.0 0.00 0.00 0.00 72 1017.2
20221204154552 19 217 2.0 7.0 0.00 0.00 0.00 74 1017.4
20221204153043 18 218 3.0 5.0 0.00 0.00 0.00 76 1017.6
20221204151550 17 237 3.0 6.0 0.00 0.00 0.00 78 1017.4
20221204150053 15 237 3.0 6.0 0.00 0.00 0.00 80 1017.4
20221204144544 14 250 2.0 4.0 0.00 0.00 0.00 83 1017.6
20221204143054 11 217 1.0 2.0 0.00 0.00 0.00 84 1017.5
20221204141553 10 200 0.0 1.0 0.00 0.00 0.00 84 1017.4
20221204140058 9 221 1.0 2.0 0.00 0.00 0.00 84 1017.5
20221204134608 9 200 2.0 5.0 0.00 0.00 0.00 84 1017.4
20221204133047 8 186 1.0 1.0 0.00 0.00 0.00 84 1017.7
20221204131549 8 208 0.0 1.0 0.00 0.00 0.00 84 1018.0
20221204130047 9 208 1.0 1.0 0.00 0.00 0.00 84 1018.2
20221204124545 9 180 0.0 2.0 0.00 0.00 0.00 84 1018.3
20221204123102 9 223 1.0 2.0 0.00 0.00 0.00 83 1018.4
20221204121555 9 199 1.0 1.0 0.00 0.00 0.00 83 1018.6
20221204120044 9 212 1.0 2.0 0.00 0.00 0.00 84 1018.8
20221204114555 8 209 1.0 1.0 0.00 0.00 0.00 83 1019.0